FW0386 Weather Reports


Display with metric or nautical units.
time (UTC)temp
F
wind
direction
speed
MPH
gust
MPH
rain 1hr
in
rain 24hr
in
rain mn
in
humidity
%
barometer
mb
20260505003039 49 275 0.0 0.0 0.00 0.00 0.00 78 1010.8
20260505001619 49 275 0.0 0.0 0.00 0.00 0.00 78 1010.9
20260505000015 49 275 0.0 0.0 0.00 0.00 0.00 78 1011.0
20260504234610 49 275 0.0 0.0 0.00 0.00 0.00 78 1011.2
20260504233109 49 275 0.0 0.0 0.00 0.00 0.00 76 1011.4
20260504231517 50 275 0.0 0.0 0.00 0.00 0.00 76 1011.5
20260504230022 50 277 0.0 0.0 0.00 0.00 0.00 78 1011.5
20260504224546 50 277 0.0 0.0 0.00 0.00 0.00 77 1011.6
20260504223046 51 268 0.0 0.0 0.00 0.00 0.00 76 1011.7
20260504221603 51 267 0.0 0.0 0.00 0.00 0.00 76 1011.8
20260504220014 52 274 0.0 0.0 0.00 0.00 0.00 75 1012.0
20260504214535 52 274 0.0 0.0 0.00 0.00 0.00 74 1012.0
20260504213104 53 280 0.0 0.0 0.00 0.00 0.00 74 1012.1
20260504211603 53 280 0.0 0.0 0.00 0.00 0.00 72 1012.3
20260504210011 53 281 0.0 0.0 0.00 0.00 0.00 72 1012.3
20260504204511 54 178 0.0 0.0 0.00 0.00 0.00 73 1012.3
20260504203102 55 122 0.0 0.0 0.00 0.00 0.00 72 1012.3
20260504201550 55 122 0.0 0.0 0.00 0.00 0.00 71 1012.3
20260504200015 56 122 0.0 0.0 0.00 0.00 0.00 70 1012.4
20260504194520 57 121 0.0 0.0 0.00 0.00 0.00 70 1012.3
20260504193043 58 121 0.0 0.0 0.00 0.00 0.00 71 1012.4
20260504191604 59 121 0.0 0.0 0.00 0.00 0.00 69 1012.4
20260504190019 60 121 0.0 0.0 0.00 0.00 0.00 70 1012.4
20260504184526 61 121 0.0 0.0 0.00 0.00 0.00 66 1012.3
20260504183041 63 121 0.0 0.0 0.00 0.00 0.00 63 1012.2
20260504181558 65 121 0.0 0.0 0.00 0.00 0.00 61 1012.2
20260504180021 66 111 0.0 0.0 0.00 0.00 0.00 55 1012.1
20260504174540 68 111 0.0 0.0 0.00 0.00 0.00 50 1012.1
20260504173115 69 111 0.0 3.0 0.00 0.00 0.00 50 1012.2
20260504171520 70 115 1.0 5.0 0.00 0.00 0.00 49 1012.2
20260504090125 64 86 1.0 4.0 0.00 0.00 0.00 60 1015.6
20260504081542 62 113 3.0 6.0 0.00 0.00 0.00 62 1015.2
20260504050009 47 308 0.0 0.0 0.00 0.00 0.00 77 1014.9
20260504044536 46 308 0.0 0.0 0.00 0.00 0.00 78 1014.8
20260504043028 45 308 0.0 1.0 0.00 0.00 0.00 80 1014.7
20260504041545 43 308 0.0 0.0 0.00 0.00 0.00 83 1014.6
20260504040106 43 308 0.0 1.0 0.00 0.00 0.00 83 1014.5
20260504034533 43 308 0.0 0.0 0.00 0.00 0.00 82 1014.6
20260504033046 43 308 0.0 2.0 0.00 0.00 0.00 82 1014.7
20260504031554 43 308 0.0 0.0 0.00 0.00 0.00 81 1014.6
20260504030007 44 308 0.0 2.0 0.00 0.00 0.00 80 1014.7
20260504024525 44 309 0.0 0.0 0.00 0.00 0.00 82 1014.6
20260504023025 45 115 0.0 1.0 0.00 0.00 0.00 81 1014.8
20260504021544 45 115 0.0 2.0 0.00 0.00 0.00 79 1014.9
20260504020107 46 115 0.0 1.0 0.00 0.00 0.00 76 1014.9
20260504014520 46 120 0.0 1.0 0.00 0.00 0.00 77 1014.9
20260504013042 46 120 0.0 1.0 0.00 0.00 0.00 77 1014.9
20260504011603 45 110 0.0 2.0 0.00 0.00 0.00 80 1014.8
20260504010017 45 110 0.0 0.0 0.00 0.00 0.00 80 1014.7
20260504004530 45 110 0.0 0.0 0.00 0.00 0.00 80 1014.8